* Astronomy

Members Login
Username 
 
Password 
    Remember Me  
Post Info TOPIC: Asteroid 2011 DQ


L

Posts: 131433
Date:
RE: Asteroid 2011 DQ
Permalink  
 


Ephemeris
Date    TT    R. A. (2000) Decl.     Delta      r     Elong.  Phase     V
2011 02 25 10 35.57 -01 49.8 0.0256 1.015 168.7 11.0 19.1
2011 02 26 10 48.41 -08 30.7 0.0250 1.014 162.2 17.4 19.2
2011 02 27 11 02.09 -15 21.0 0.0248 1.013 155.3 24.1 19.4
2011 02 28 11 16.57 -22 04.5 0.0251 1.012 148.5 30.7 19.6


__________________


L

Posts: 131433
Date:
Permalink  
 

Object
Name
Close
Approach
Date
Miss
Distance
(AU)
Miss
Distance
(LD)
Estimated
Diameter*
H
(mag)
Relative
Velocity
(km/s)
(2011 DQ) 2011-Feb-26 0.0248 9.7 15 m - 33 m 26.3 5.72


__________________


L

Posts: 131433
Date:
Permalink  
 

Orbital elements:
2011 DQ Earth MOID = 0.0238 AU
Epoch 2011 Feb. 8.0 TT = JDT 2455600.5 MPC
M 345.51677 (2000.0) P Q
n 0.51672104 Peri. 194.83417 -0.97898961 -0.19883022
a 1.5380317 Node 333.56703 +0.19590305 -0.85556540
e 0.3440907 Incl. 5.83185 +0.05658038 -0.47798996
P 1.91 H 26.3 G 0.15 U 7
MPEC 2011 - D29

__________________
Page 1 of 1  sorted by
 
Quick Reply

Please log in to post quick replies.



Create your own FREE Forum
Report Abuse
Powered by ActiveBoard